Погода Максимкин Яр

Погода Максимкин Яр : погода сейчас, прогноз погоды и архив. Всё, что Вы хотите узнать о погоде Максимкин Яр!

Поиск расширенной информации на нашем сайте:

Другие новости

Новости СМИ2

Главная страница сайта

Новости сайта

03.07.2017

Напоминаем, что на нашем специализированном сайте Метеоцентр.Азия вы можете получить высокодетализированные автоматические прогнозы погоды по пунктам России, СНГ и мира в авиационном формате (включающие направление и скорость ветра, видимость, явления погоды, количество и форму облачности, нижнюю и верхнюю границу облачности).


Погода Максимкин Яр - сегодня

Время (UTC), дата Ветер
(°,м/с) 
Видим.   Явления Облачность Т
(°С)
Тd
(°С)
f(%) Тe
(°С)
Pmin
(гПа)
dP
(гПа)
Po
(мм)
O2
(г/м3)
Тmin Tmax R s Состояние
почвы
00 21.02.18 170 (Ю) 4000 м  слаб. снег  10/0 средняя 
[As op]
-13.6 -15.3 87 -14  1026.8  0.2  760  323  -13.8    71  равномерный
сухой снег
100% 
06 21.02.18 240 (ЮЗ) 20000 м  {снег}  8/0 средняя, верхняя 
[As trans|Ci sp]
-9.8 -13.2 76 -10  1027  0.5  760  319           
09 21.02.18 тихо ()   4000 м  слаб. снег  10/0 средняя 
[As op]
-7.9 -11.7 74 -8  1026.8  -0.1  760  316           
12 21.02.18 тихо ()   20000 м  {снег}  3/0 средняя 
[Ac trans]
-13.1 -14.3 91 -13  1027  760  323    -7.7  0.3     
15 21.02.18 070 (В) 20000 м    3/0 верхняя 
[Ci sp]
-14.9 -16.6 87 -15  1026.6  -0.6  759  325           
18 21.02.18 050 (СВ) 20000 м    ясно 
-20.3 -22.7 81 -21  1026.5  -0.4  759  332           
21 21.02.18 050 (СВ) 20000 м    ясно 
-19.3 -21.6 82 -20  1026  -0.4  759  331           
00 22.02.18 050 (СВ) 20000 м    ясно 
-21 -23.4 81 -21  1025  -1.1  758  333  -21.1      72  равномерный
сухой снег
100% 
03 22.02.18 050 (СВ) 20000 м    8/0 верхняя 
[Cs]
-20.4 -22.8 81 -21  1023.9  -1.1  757  331  -21.9         
06 22.02.18 040 (СВ) 20000 м    10/0 верхняя 
[Cs]
-13.9 -16.4 81 -14  1021.6  -2  756  322           
09 22.02.18 060 (СВ) 20000 м    10/0 средняя 
[As trans]
-9.3 -13.1 74 -11  1018.8  -2.5  754  316           
12 22.02.18 080 (В) 20000 м    10/0 средняя, верхняя 
[As trans|Ci fib]
-11.2 -14.1 79 -13  1017.3  -1.5  753  318    -9.1       
15 22.02.18 060 (СВ) 4000 м  слаб. снег  10/0 средняя 
[As op]
-11.9 -13.8 86 -12  1016  -1.3  752  318           
18 22.02.18 060 (СВ) 4000 м  слаб. снег  10/0 средняя 
[As op]
-12.1 -13.9 86 -12  1015.3  -0.7  751  318           
21 22.02.18 тихо ()   4000 м  слаб. снег  10/0 средняя 
[As op]
-12.6 -14.2 88 -13  1015.4  0.1  751  319           
00 23.02.18 240 (ЮЗ) 4000 м  слаб. снег  10/0 средняя 
[As op]
-10.2 -11.8 88 -14  1016.3  752  316  -12.7    75  равномерный
сухой снег
100% 
03 23.02.18 220 (ЮЗ) 4000 м  слаб. ливневой снег  10/10 600 м кучево-дожд. 
[Cb cap]
-10.9 -12.6 87 -14  1017.8  1.4  753  317           
06 23.02.18 230 (ЮЗ) 4000 м  слаб. ливневой снег  8/8 600 м кучево-дожд. 
[Cb cap]
-9.8 -13.4 75 -14  1018.1  0.3  753  316           
09 23.02.18 200 (Ю) 4000 м  слаб. ливневой снег  8/8 600 м кучево-дожд., верхняя 
[Cb cap|Ci fib]
-7.5 -12.3 68 -9  1017.5  -0.4  753  313           
12 23.02.18 150 (ЮВ) 20000 м  {ливн. осадки}  10/10 600 м 
[Sc diur, vesp]
-9.6 -11.8 84 -9  1017.5  -0.1  753  316    -7.4  0.7     
15 23.02.18 230 (ЮЗ) 4000 м  слаб. ливневой снег  10/8 600 м кучево-дожд., средняя 
[Cb cap|As trans]
-10.5 -12 89 -12  1017.5  -0.1  753  317           
18 23.02.18 210 (ЮЗ) 20000 м  {ливн. осадки}  10/3 600 м кучево-дожд., средняя 
[Cb cap|As op]
-12.9 -14.5 88 -13  1017.7  0.1  753  320           
21 23.02.18 220 (ЮЗ) 4000 м  слаб. снег  10/0 средняя 
[As op]
-14.1 -16.1 85 -16  1018.5  0.7  753  322           
00 24.02.18 190 (Ю) 4000 м  слаб. снег  10/0 средняя 
[As op]
-17.1 -19.2 84 -17  1019.5  0.9  754  326  -17.1    0.9  76  равномерный
сухой снег
100% 
06 24.02.18 180 (Ю) 4000 м  слаб. снег  10/3 600 м средняя 
[Sc|As op]
-12.6 -16 76 -13  1020.4  0.5  755  320           
Время (UTC), дата Ветер
(°,м/с) 
Видим.   Явления Облачность Т
(°С)
Тd
(°С)
f(%) Тe
(°С)
Pmin
(гПа)
dP
(гПа)
Po
(мм)
O2
(г/м3)
Тmin Tmax R s Состояние
почвы

Для получения пояснительной информации подведите курсор к названию столбца.

ПОГОДА Максимкин Яр - архив

Всё, что Вы хотите узнать о погоде Максимкин Яр - удобно и подробно!

Выберите нужную дату (начиная с 1 января 2015* года) и нажмите кнопку "Найти".
Будут отображены архивные сводки погоды по пункту Максимкин Яр, начиная с указанной даты.


Отображать данные в формате CSV (для использования в таблицах Excel)


Внимание! Наш архив погоды предназначен исключительно для личного некоммерческого использования в познавательных целях. Если Вам необходимы официальные справки о состоянии погоды (для производственных, юридических, коммерческих и т.п. целей), обращайтесь в органы Росгидромета.

*Примечание: данная дата относится к архиву по метеостанциям СССР (Россия, СНГ, Балтия).
Архив по метеостанциям Зарубежной Европы и Азии (кроме Китая) хранится 10 дней, по другим регионам земного шара (Китай, Африка, Америка, Австралия, Океания) - 1 день.

Максимкин Яр - район местоположения метеостанции


Название, широта, долгота, высота метеостанции:
Максимкин Яр 58.6°ш. 86.7°д. 105 м над ур. моря [Российская Федерация]

Дополнительная информация

В oтличие oт бoльшинства пoгoдных сайтoв мы публикуем пoдрoбную метеoинфoрмацию в детальнoм прoфессиoнальнoм фoрмате.

Характеристики температуры и влажнoсти вoздуха измеряются на высoте 2 м в тени вдали oт зданий и деревьев.
Скoрoсть ветра измеряется на высoте 10 м (на урoвне рoста челoвека скoрoсть ветра ниже в 1.5-2 раза). Если метеoстанция нахoдится в гoрoде или в лесу, тo скoрoсть ветра занижена на 2-4 м/с пo сравнению с oткрытым местoм. Скoрoсть ветра над акватoриями крупных рек и oзёр, а также на вершинах хoлмoв на 2-5 м/с выше, чем в oбычных услoвиях.
Атмoсфернoе давление в разных тoчках местнoсти мoжет значительнo oтличаться oт давления на метеoстанции, в зависимoсти oт услoвий рельефа (при пoдъёме на 10 м давление пoнижается примернo на 1 мм рт.ст.).